This is the latest recevied weather packets stored in our database for station/object WD7CGF. If no packets are shown the sender has not sent any weather packets the latest 10 day(s).
| Time | Temp. | Humidity | Pressure | Rain* | Wind** | Luminosity | Snow |
|---|---|---|---|---|---|---|---|
| 1788041923 | 18.89° C | 52% | 1014.4 hPa | 0 mm | - | - | - |
| 1788041315 | 19.44° C | 51% | 1013.9 hPa | 0 mm | - | - | - |
| 1788040728 | 19.44° C | 53% | 1013.8 hPa | 0 mm | - | - | - |
| 1788039517 | 19.44° C | 51% | 1013.8 hPa | 0 mm | - | - | - |
| 1788038930 | 19.44° C | 50% | 1013.8 hPa | 0 mm | - | - | - |
| 1788038324 | 19.44° C | 51% | 1013.8 hPa | 0 mm | - | - | - |
| 1788037719 | 18.89° C | 51% | 1013.6 hPa | 0 mm | - | - | - |
| 1788037115 | 18.89° C | 51% | 1013.4 hPa | 0 mm | - | - | - |
| 1788036529 | 19.44° C | 48% | 1013.4 hPa | 0 mm | - | - | - |
| 1788035920 | 18.89° C | 49% | 1013.4 hPa | 0 mm | - | - | - |
| 1788035318 | 18.89° C | 52% | 1013.6 hPa | 0 mm | - | - | - |
| 1788034712 | 18.33° C | 52% | 1013.6 hPa | 0 mm | - | - | - |
| 1788034127 | 18.33° C | 53% | 1013.3 hPa | 0 mm | - | - | - |
| 1788033521 | 18.33° C | 55% | 1013.3 hPa | 0 mm | - | - | - |
| 1788032914 | 17.78° C | 54% | 1013.3 hPa | 0 mm | - | - | - |
| 1788032327 | 17.78° C | 54% | 1013.3 hPa | 0 mm | - | - | - |
| 1788031721 | 17.78° C | 56% | 1013.2 hPa | 0 mm | - | - | - |
| 1788031119 | 17.78° C | 56% | 1013.2 hPa | 0 mm | - | - | - |
| 1788030511 | 17.22° C | 57% | 1013.3 hPa | 0 mm | - | - | - |
| 1788029926 | 17.78° C | 55% | 1013.1 hPa | 0 mm | - | - | - |
| 1788029318 | 17.22° C | 54% | 1013.1 hPa | 0 mm | - | - | - |
| 1788028713 | 17.78° C | 55% | 1012.9 hPa | 0 mm | - | - | - |
| 1788028126 | 17.22° C | 56% | 1012.9 hPa | 0 mm | - | - | - |
| 1788027519 | 17.22° C | 54% | 1012.9 hPa | 0 mm | - | - | - |
| 1788026912 | 16.67° C | 56% | 1012.9 hPa | 0 mm | - | - | - |
* Rain latest hour (hover to see other rain measurements)
** Current wind speed in m/s (hover to see current wind gust speed)